FREGAT DEB, 45833

Orbit data source: Space-Track

FREGAT DEB, 45833 is space debris in LEO originally from a launch on Mon, 18 Jul 2011 UTC launched from the Tyuratam Missile And Space Complex (TTMTR). Debris objects in space refer to the collection of defunct objects orbiting the Earth. Examples of debris include non-operational satellites, rocket bodies, and fragments generated from explosions, collisions, or faulty payload assembly.

Loading next visibility...
Identifier
45833, 2011-037BT
Orbit
LEO
Country
Flag of CISCIS
Related business
Manufacturer
Lavochkin
Mission
Spacecraft
Bus & Motor
Unknown
Mass
Unknown
Launch date (UTC)
2011-07-18 (15 years ago)
Launch vehicle
Unknown
Launch site
Tyuratam Missile And Space Complex (TTMTR)
Object type
Payload
Rocket body
Debris
Shape & HBR
Unknown shape, 1.1 m
Radar Cross Section
Medium (>0.1 m² and <1 m²)

Expand to show TLE details & history
Last TLE update: 1 day ago

TLE from 1 day ago
0 FREGAT DEB
1 45833U 11037BT  26254.40565172  .00001074  00000-0  32577-2 0  9992
2 45833  51.5996  43.9882 2008155 266.6953  70.3651 10.24265470234318
Epoch: 2026-09-11T09:44Z
TLE epoch observation values (Epoch: 2026-09-11T09:44:08.308Z)
Latitude
-0.00006°
Longitude
-92.47594°
Altitude
2,320.672 km
Speed
6.868 km/s
True Right ascension
02h 55m 57s
True Declination
0° 00' 00"
Sunlit
Object was in daylight at epoch
Visualization orbit readout
Latitude
Unknown
Longitude
Unknown
Altitude
Unknown
Speed
Unknown
Apparent Right ascension
Unknown
Apparent Declination
Unknown
Sunlit
N/A
Visualization observer readout
Local Sidereal Time
07:05:50
Azimuth
Unknown
Elevation
Unknown
Doppler factor
Unknown
Orbital elements
Apogee altitude
4,377.183 km
Perigee altitude
779.903 km
Semi-major axis
8,956.68 km
Eccentricity
0.20082
Inclination
51.5996°
RAAN
43.9882°
Arg. of periapsis
266.6953°
True anomaly
93.38576°
Mean anomaly
70.3651°
Eccentric anomaly
81.75197°
Mean motion
2.56049 °/min
Orbital period
140.6 mins
BSTAR
0.0032577
Loading maneuver chart data...
Computing Atmospheric mass density...
Loading historical data...
Loading historical data...
Loading historical data...
Loading historical data...
Loading historical data...
Loading historical data...
Loading historical data...

Documentation

Showing up to 5 results
|